EN

Hourly Weather Altos

Today, 17 January, Sunday

Time Temperature Precipitation Wind Pressure Humidity
00:00 +25°C° 1.4 mm 2 mps 741 mmHg 96%
01:00 +24°C° 0.2 mm 2 mps 740 mmHg 96%
02:00 +24°C° 0.2 mm 2 mps 740 mmHg 97%
03:00 +24°C° 0.2 mm 1 mps 740 mmHg 97%
04:00 +24°C° 0.1 mm 1 mps 740 mmHg 97%
05:00 +22°C° 0.1 mm 0 mps 740 mmHg 97%
06:00 +22°C° 0.1 mm 0 mps 741 mmHg 97%
07:00 +23°C° 1.2 mm 0 mps 741 mmHg 92%
08:00 +27°C° 1.2 mm 1 mps 742 mmHg 86%
09:00 +28°C° 1.2 mm 1 mps 742 mmHg 80%
10:00 +30°C° 1.2 mm 1 mps 742 mmHg 74%
11:00 +31°C° 1.2 mm 1 mps 741 mmHg 68%
12:00 +33°C° 1.2 mm 1 mps 741 mmHg 62%
13:00 +33°C° 1.5 mm 1 mps 740 mmHg 62%
14:00 +31°C° 1.5 mm 0 mps 739 mmHg 62%
15:00 +31°C° 1.5 mm 0 mps 739 mmHg 62%
16:00 +31°C° 0.4 mm 1 mps 739 mmHg 70%
17:00 +29°C° 0.4 mm 1 mps 739 mmHg 77%
18:00 +28°C° 0.4 mm 1 mps 739 mmHg 84%
19:00 +27°C° 0.4 mm 1 mps 739 mmHg 86%
20:00 +26°C° 0.4 mm 1 mps 740 mmHg 88%
21:00 +26°C° 0.4 mm 1 mps 740 mmHg 89%
22:00 +25°C° 0.5 mm 1 mps 740 mmHg 91%
23:00 +25°C° 0.5 mm 1 mps 741 mmHg 92%

Tomorrow, 18 January, Monday

Time Temperature Precipitation Wind Pressure Humidity
00:00 +25°C° 0.5 mm 1 mps 741 mmHg 93%
01:00 +24°C° 0.5 mm 1 mps 740 mmHg 94%
02:00 +24°C° 0.5 mm 1 mps 740 mmHg 96%
03:00 +24°C° 0.5 mm 1 mps 740 mmHg 97%
04:00 +24°C° 0.6 mm 1 mps 740 mmHg 97%
05:00 +24°C° 0.6 mm 1 mps 740 mmHg 97%
06:00 +24°C° 0.6 mm 1 mps 741 mmHg 97%
07:00 +25°C° 1.3 mm 1 mps 741 mmHg 93%
08:00 +26°C° 1.3 mm 2 mps 742 mmHg 89%
09:00 +27°C° 1.3 mm 2 mps 742 mmHg 86%
10:00 +28°C° 1.6 mm 2 mps 742 mmHg 83%
11:00 +29°C° 1.6 mm 2 mps 741 mmHg 80%
12:00 +30°C° 1.6 mm 1 mps 741 mmHg 77%
13:00 +30°C° 1.1 mm 1 mps 740 mmHg 74%
14:00 +30°C° 1.1 mm 1 mps 740 mmHg 72%
15:00 +29°C° 1.1 mm 0 mps 739 mmHg 69%
16:00 +30°C° 0.9 mm 1 mps 739 mmHg 75%
17:00 +28°C° 0.9 mm 1 mps 739 mmHg 81%
18:00 +27°C° 0.9 mm 1 mps 739 mmHg 86%
19:00 +26°C° 1.1 mm 1 mps 740 mmHg 88%
20:00 +26°C° 1.1 mm 1 mps 740 mmHg 89%
21:00 +25°C° 1.1 mm 1 mps 741 mmHg 91%
22:00 +25°C° 1.9 mm 1 mps 741 mmHg 92%
23:00 +25°C° 1.9 mm 1 mps 741 mmHg 93%

Day after tomorrow, 19 January, Tuesday

Time Temperature Precipitation Wind Pressure Humidity
00:00 +25°C° 1.9 mm 1 mps 742 mmHg 94%
01:00 +25°C° 0.8 mm 1 mps 741 mmHg 94%
02:00 +24°C° 0.8 mm 1 mps 741 mmHg 95%
03:00 +24°C° 0.8 mm 1 mps 740 mmHg 95%
04:00 +24°C° 0 mm 1 mps 741 mmHg 96%
05:00 +24°C° 0 mm 1 mps 741 mmHg 96%
06:00 +24°C° 0 mm 1 mps 741 mmHg 96%
07:00 +25°C° 0 mm 1 mps 742 mmHg 89%
08:00 +27°C° 0 mm 2 mps 742 mmHg 81%
09:00 +28°C° 0 mm 2 mps 743 mmHg 73%
10:00 +30°C° 0 mm 2 mps 742 mmHg 67%
11:00 +31°C° 0 mm 2 mps 742 mmHg 60%
12:00 +34°C° 0 mm 2 mps 742 mmHg 53%
13:00 +34°C° 0 mm 2 mps 741 mmHg 51%
14:00 +34°C° 0 mm 1 mps 740 mmHg 48%
15:00 +35°C° 0 mm 1 mps 740 mmHg 46%
16:00 +33°C° 0 mm 1 mps 740 mmHg 52%
17:00 +31°C° 0 mm 1 mps 740 mmHg 57%
18:00 +30°C° 0 mm 1 mps 740 mmHg 63%
19:00 +29°C° 0.2 mm 1 mps 740 mmHg 68%
20:00 +28°C° 0.2 mm 1 mps 741 mmHg 73%
21:00 +27°C° 0.2 mm 1 mps 741 mmHg 78%
22:00 +26°C° 1.2 mm 1 mps 741 mmHg 83%
23:00 +25°C° 1.2 mm 1 mps 741 mmHg 88%

20 January, Wednesday

Time Temperature Precipitation Wind Pressure Humidity
00:00 +25°C° 1.2 mm 1 mps 741 mmHg 93%
01:00 +25°C° 0.1 mm 1 mps 741 mmHg 94%
02:00 +25°C° 0.1 mm 1 mps 741 mmHg 94%
03:00 +25°C° 0.1 mm 1 mps 740 mmHg 95%
04:00 +22°C° 0.2 mm 0 mps 740 mmHg 96%
05:00 +22°C° 0.2 mm 0 mps 741 mmHg 96%
06:00 +22°C° 0.2 mm 0 mps 741 mmHg 96%
07:00 +25°C° 0.6 mm 1 mps 742 mmHg 93%
08:00 +26°C° 0.6 mm 2 mps 742 mmHg 89%
09:00 +27°C° 0.6 mm 2 mps 742 mmHg 85%
10:00 +29°C° 0.3 mm 2 mps 742 mmHg 77%
11:00 +30°C° 0.3 mm 2 mps 742 mmHg 68%
12:00 +32°C° 0.3 mm 2 mps 741 mmHg 59%
13:00 +32°C° 0.2 mm 1 mps 740 mmHg 58%
14:00 +33°C° 0.2 mm 1 mps 740 mmHg 57%
15:00 +33°C° 0.2 mm 1 mps 739 mmHg 55%
16:00 +31°C° 0.1 mm 1 mps 739 mmHg 62%
17:00 +30°C° 0.1 mm 1 mps 739 mmHg 69%
18:00 +29°C° 0.1 mm 2 mps 740 mmHg 76%
19:00 +27°C° 1.3 mm 2 mps 740 mmHg 82%
20:00 +26°C° 1.3 mm 2 mps 741 mmHg 88%
21:00 +25°C° 1.3 mm 1 mps 742 mmHg 94%
22:00 +25°C° 1.4 mm 1 mps 741 mmHg 94%
23:00 +24°C° 1.4 mm 1 mps 741 mmHg 95%

21 January, Thursday

Time Temperature Precipitation Wind Pressure Humidity
00:00 +24°C° 1.4 mm 1 mps 741 mmHg 95%
01:00 +24°C° 0 mm 1 mps 741 mmHg 95%
02:00 +24°C° 0 mm 1 mps 741 mmHg 96%
03:00 +24°C° 0 mm 1 mps 741 mmHg 96%
04:00 +24°C° 0 mm 1 mps 741 mmHg 96%
05:00 +24°C° 0 mm 1 mps 742 mmHg 96%
06:00 +24°C° 0 mm 1 mps 742 mmHg 96%
07:00 +25°C° 0.4 mm 1 mps 742 mmHg 91%
08:00 +27°C° 0.4 mm 1 mps 743 mmHg 86%
09:00 +28°C° 0.4 mm 2 mps 743 mmHg 81%
10:00 +29°C° 0.8 mm 2 mps 743 mmHg 76%
11:00 +30°C° 0.8 mm 2 mps 742 mmHg 71%
12:00 +32°C° 0.8 mm 2 mps 742 mmHg 66%
13:00 +32°C° 0.8 mm 2 mps 741 mmHg 66%
14:00 +32°C° 0.8 mm 2 mps 741 mmHg 66%
15:00 +32°C° 0.8 mm 2 mps 740 mmHg 66%
16:00 +30°C° 1.2 mm 1 mps 740 mmHg 73%
17:00 +28°C° 1.2 mm 1 mps 740 mmHg 81%
18:00 +26°C° 1.2 mm 1 mps 740 mmHg 89%
19:00 +26°C° 1.5 mm 1 mps 741 mmHg 89%
20:00 +25°C° 1.5 mm 1 mps 741 mmHg 89%
21:00 +23°C° 1.5 mm 0 mps 742 mmHg 90%
22:00 +23°C° 0.5 mm 0 mps 742 mmHg 90%
23:00 +25°C° 0.5 mm 1 mps 742 mmHg 91%

22 January, Friday

Time Temperature Precipitation Wind Pressure Humidity
00:00 +24°C° 0.5 mm 1 mps 742 mmHg 92%
01:00 +22°C° 0.6 mm 0 mps 742 mmHg 93%
02:00 +22°C° 0.6 mm 0 mps 741 mmHg 94%
03:00 +22°C° 0.6 mm 0 mps 741 mmHg 95%
04:00 +22°C° 1.1 mm 0 mps 742 mmHg 95%
05:00 +22°C° 1.1 mm 0 mps 742 mmHg 96%
06:00 +23°C° 1.1 mm 1 mps 743 mmHg 96%
07:00 +25°C° 0.1 mm 1 mps 743 mmHg 91%
08:00 +26°C° 0.1 mm 1 mps 744 mmHg 85%
09:00 +28°C° 0.1 mm 2 mps 744 mmHg 80%
10:00 +29°C° 0.1 mm 2 mps 744 mmHg 72%
11:00 +31°C° 0.1 mm 2 mps 743 mmHg 64%
12:00 +34°C° 0.1 mm 2 mps 743 mmHg 56%
13:00 +34°C° 0.3 mm 2 mps 742 mmHg 57%
14:00 +33°C° 0.3 mm 1 mps 741 mmHg 57%
15:00 +33°C° 0.3 mm 1 mps 741 mmHg 57%
16:00 +31°C° 0.3 mm 1 mps 741 mmHg 67%
17:00 +29°C° 0.3 mm 2 mps 741 mmHg 77%
18:00 +27°C° 0.3 mm 2 mps 741 mmHg 87%
19:00 +27°C° 0 mm 2 mps 741 mmHg 88%
20:00 +26°C° 0 mm 1 mps 742 mmHg 88%
21:00 +26°C° 0 mm 1 mps 742 mmHg 89%
22:00 +25°C° 0.9 mm 1 mps 742 mmHg 90%
23:00 +25°C° 0.9 mm 1 mps 742 mmHg 91%
Show more